Home   Weather   Jennersdorf   Past weeks

Flag for Austria Past Weather in Jennersdorf, Burgenland, Austria — Yesterday and Last 2 Weeks

Now
49 °F

Cool.


Feels Like: 49 °F
Forecast: 50 / 64 °F
Wind: 1 mph from Northwest

Location: Murska Sobota

Current Time: Oct 1, 2016 at 3:41:59 AM

Latest Report: Oct 1, 2016 at 3:00 AM


Visibility: N/A

Pressure: 30.00 "Hg

Humidity: 97%

Dew Point: 49 °F

Location of JennersdorfLocation

Past Weather in Jennersdorf — Graph

°F

Jennersdorf Temperature Yesterday

Maximum temperature yesterday: 76 °F (at 3:00 PM)
Minimum temperature yesterday: 46 °F (at 6:00 AM)
Average temperature yesterday: 59 °F

High & Low Weather Summary for the Past Weeks

 TemperatureHumidityPressure
High82 °F (Sep 16, 2:00 PM)99% (Sep 25, 5:00 AM)30.42 "Hg (Sep 25, 5:00 AM)
Low38 °F (Sep 23, 7:00 AM)38% (Sep 25, 4:00 PM)29.75 "Hg (Sep 19, 3:00 PM)
Average59 °F76%30.10 "Hg
* Reported Sep 16 2:00 AM — Oct 1 2:00 AM, Jennersdorf, Weather by CustomWeather, © 2016

Note: Actual official high and low records may vary slightly from our data, if they occured in-between our weather recording intervals... More about our weather records

Advertising

Jennersdorf Weather History for the Previous 24 Hours

Scroll right to see more
 ConditionsComfort  
Time TempWeatherWind HumidityBarometerVisibility
2:00 AM
Sat, Oct 1
51 °FCool.1 mph97%30.01 "HgN/A
1:00 AM52 °FCool.1 mph97%30.01 "HgN/A
12:00 AM53 °FCool.1 mph97%30.02 "HgN/A
11:00 PM
Fri, Sep 30
53 °FCool.No wind95%30.02 "HgN/A
10:00 PM56 °FCool.1 mph94%30.02 "HgN/A
9:00 PM58 °FCool.1 mph91%30.01 "HgN/A
8:00 PM61 °FPassing clouds.No wind83%30.01 "Hg6 mi
7:00 PM66 °FMild.1 mph69%30.00 "HgN/A
6:00 PM74 °FMild.1 mph51%29.99 "HgN/A
5:00 PM76 °FMild.2 mph47%30.00 "HgN/A
4:00 PM76 °FMild.1 mph47%30.01 "HgN/A
3:00 PM76 °FPassing clouds.1 mph47%30.03 "Hg6 mi
2:00 PM75 °FPassing clouds.1 mph51%30.05 "Hg6 mi
12:00 PM70 °FMild.1 mph60%30.09 "HgN/A
11:00 AMN/A1 mphN/AN/AN/A
10:00 AM60 °FCool.1 mph81%30.10 "HgN/A
9:00 AM55 °FCool.1 mph93%30.10 "HgN/A
8:00 AM49 °FFog.No wind98%30.10 "Hg2 mi
7:00 AM46 °FFog.1 mph99%30.09 "Hg2 mi
6:00 AM46 °FCool.1 mph98%30.09 "HgN/A
5:00 AM47 °FCool.No wind97%30.09 "HgN/A
4:00 AM47 °FCool.No wind96%30.09 "HgN/A
3:00 AM49 °FCool.1 mph97%30.10 "HgN/A
Weather by CustomWeather, © 2016

See weather overviewHow to use our weather pages